Location: Oberstdorf
(47.4188°N, 10.2969°E)
Time: 05:41:26
(UTC+02:00)

Tiangong 2 - Visible Passes

Search period start: 26 May 2018 00:00
Search period end: 05 June 2018 00:00
Orbit: 382 x 385 km, 42.8° (Epoch: 25 May)

Date Brightness Start Highest point End Pass type
(mag) Time Alt. Az. Time Alt. Az. Time Alt. Az.
26 May 1.8 22:48:01 10° WSW 22:50:55 33° S 22:51:30 30° SSE visible
27 May 1.8 21:48:18 10° WSW 21:51:13 35° S 21:54:08 10° ESE visible
27 May 2.9 23:24:56 10° WSW 23:26:31 20° SW 23:26:31 20° SW visible
28 May 2.1 22:25:04 10° WSW 22:27:52 29° S 22:29:18 20° SSE visible
29 May 2.9 23:02:12 10° WSW 23:04:13 17° SSW 23:04:13 17° SSW visible
30 May 2.5 22:02:09 10° WSW 22:04:45 23° SSW 22:06:56 12° SE visible
31 May 3.4 22:39:50 10° SW 22:41:11 12° SSW 22:41:51 12° SSW visible
